Date String (YYYY-MM-DD hh:mm:ss) UTC,Instrument flags,Ambient pressure (hPa),Sample flow (lpm),Bypass flow (lpm),Sample temperature (°C),Ambient temperature (°C),ASC tube jacket temperature (°C),LED temperature (°C),Box temperature (°C),Sample RH (%),Span deviation,Mass concentration (μg/m³),Mass concentration (μg/m³),Mass concentration (μg/m³)
DateTimeUTC,F1_M11,P_M11,Q1_M11,Q2_M11,T1_M11,T2_M11,T3_M11,T4_M11,T5_M11,U1_M11,ZSPAN_M11,X0_M11,X2_M11,X1_M11
2022-07-21 19:00:00,,0827.8,5.00,0.00,29.1,27.8,00.0,37.8,31.1,15.1,0001.7,0017.55,0006.49,0005.26
2022-07-21 19:01:00,,0827.7,5.00,0.00,29.2,27.5,00.0,37.7,31.1,15.0,0001.1,0017.48,0006.49,0005.28
2022-07-21 19:02:00,,0827.7,5.00,0.00,29.1,27.0,00.0,37.7,31.0,15.1,0000.0,0017.49,0006.51,0005.29
2022-07-21 19:03:00,,0827.7,5.00,0.00,29.1,26.9,00.0,37.7,31.0,15.3,0000.0,0016.83,0006.52,0005.30
2022-07-21 19:04:00,,0827.7,5.00,0.00,29.1,27.0,00.0,37.7,30.9,14.9,0000.0,0016.24,0006.53,0005.32
2022-07-21 19:05:00,,0827.7,4.99,0.00,29.1,27.2,00.0,37.7,30.9,15.1,0000.0,0015.73,0006.52,0005.36
2022-07-21 19:06:00,,0827.7,4.99,0.00,29.1,27.4,00.0,37.7,31.0,15.3,0000.0,0016.05,0006.54,0005.39
2022-07-21 19:07:00,,0827.7,5.00,0.00,29.1,27.6,00.0,37.8,31.0,15.3,0000.0,0016.50,0006.55,0005.42
2022-07-21 19:08:00,,0827.7,4.99,0.00,29.1,27.8,00.0,37.8,31.1,15.4,0000.0,0016.18,0006.59,0005.45
2022-07-21 19:09:00,,0827.7,5.00,0.00,29.2,27.8,00.0,37.8,31.1,15.6,0000.0,0016.37,0006.59,0005.45
2022-07-21 19:10:00,,0827.7,5.01,0.00,29.1,27.2,00.0,37.7,31.0,15.6,0000.0,0016.63,0006.59,0005.43
2022-07-21 19:11:00,,0827.7,5.00,0.00,29.1,26.9,00.0,37.7,31.0,15.5,0000.0,0017.21,0006.51,0005.40
2022-07-21 19:12:00,,0827.7,4.99,0.00,29.1,27.0,00.0,37.7,30.9,15.4,0000.0,0017.03,0006.48,0005.36
2022-07-21 19:13:00,,0827.7,5.00,0.00,29.1,27.1,00.0,37.7,30.9,16.3,0000.0,0016.82,0006.47,0005.33
2022-07-21 19:14:00,,0827.7,5.00,0.00,29.1,27.3,00.0,37.7,31.0,17.1,0000.0,0017.78,0006.46,0005.28
2022-07-21 19:15:00,,0827.7,5.01,0.00,29.1,27.5,00.0,37.8,31.0,16.7,0000.0,0018.16,0006.46,0005.24
2022-07-21 19:16:00,,0827.7,4.99,0.00,29.1,27.7,00.0,37.8,31.1,16.8,0000.0,0017.53,0006.42,0005.18
2022-07-21 19:17:00,,0827.7,5.00,0.00,29.1,27.9,00.0,37.8,31.1,17.0,0000.0,0016.63,0006.38,0005.13
2022-07-21 19:18:00,,0827.7,5.00,0.00,29.2,27.6,00.0,37.8,31.1,16.4,0000.0,0017.45,0006.32,0005.07
2022-07-21 19:19:00,,0827.7,4.99,0.00,29.1,27.0,00.0,37.7,31.0,16.9,0000.0,0017.69,0006.28,0005.02
2022-07-21 19:20:00,,0827.6,5.02,0.00,29.1,26.9,00.0,37.7,31.0,18.2,0000.0,0017.84,0006.25,0004.99
2022-07-21 19:21:00,,0827.6,5.00,0.00,29.1,27.0,00.0,37.7,30.9,17.4,0000.0,0017.46,0006.18,0004.94
2022-07-21 19:22:00,,0827.5,5.00,0.00,29.1,27.2,00.0,37.7,30.9,17.2,0000.0,0016.89,0006.12,0004.88
2022-07-21 19:23:00,,0827.6,4.99,0.00,29.1,27.4,00.0,37.7,31.0,17.1,0000.0,0017.01,0006.11,0004.85
2022-07-21 19:24:00,,0827.6,5.00,0.00,29.1,27.6,00.0,37.8,31.0,16.8,0000.0,0017.22,0006.11,0004.82
2022-07-21 19:25:00,,0827.5,5.00,0.00,29.1,27.8,00.0,37.8,31.1,17.1,0000.0,0016.33,0006.08,0004.78
2022-07-21 19:26:00,,0827.5,4.99,0.00,29.2,28.0,00.0,37.8,31.2,16.9,0000.0,0016.15,0006.09,0004.76
2022-07-21 19:27:00,,0827.5,5.01,0.00,29.2,27.7,00.0,37.8,31.2,17.1,0000.0,0016.04,0006.04,0004.76
2022-07-21 19:28:00,,0827.5,5.00,0.00,29.2,27.1,00.0,37.7,31.1,17.2,0000.0,0016.30,0006.01,0004.74
2022-07-21 19:29:00,,0827.5,5.00,0.00,29.1,27.0,00.0,37.7,31.0,16.8,0000.0,0015.38,0006.02,0004.73
2022-07-21 19:30:00,,0827.5,5.01,0.00,29.1,27.1,00.0,37.7,31.0,16.7,0000.0,0014.27,0005.96,0004.71
2022-07-21 19:31:00,,0827.5,5.00,0.00,29.1,27.2,00.0,37.8,31.0,16.6,0000.0,0013.51,0005.97,0004.72
2022-07-21 19:32:00,,0827.5,4.99,0.00,29.1,27.4,00.0,37.8,31.0,16.8,0000.0,0013.58,0005.97,0004.73
2022-07-21 19:33:00,,0827.5,5.02,0.00,29.1,27.6,00.0,37.8,31.1,16.9,0000.0,0014.21,0006.00,0004.74
2022-07-21 19:34:00,,0827.5,5.00,0.00,29.2,27.8,00.0,37.8,31.2,16.8,0000.0,0013.73,0005.95,0004.74
2022-07-21 19:35:00,,0827.4,5.01,0.00,29.2,27.9,00.0,37.8,31.2,16.8,0000.0,0013.48,0005.90,0004.74
2022-07-21 19:36:00,,0827.4,5.01,0.00,29.2,27.4,00.0,37.8,31.2,16.7,0000.0,0013.51,0005.93,0004.75
2022-07-21 19:37:00,,0827.4,5.00,0.00,29.2,27.0,00.0,37.7,31.1,16.7,0000.0,0013.84,0005.93,0004.76
2022-07-21 19:38:00,,0827.4,5.01,0.00,29.2,27.0,00.0,37.8,31.0,16.5,0000.0,0014.52,0005.97,0004.77
2022-07-21 19:39:00,,0827.4,5.01,0.00,29.1,27.2,00.0,37.8,31.0,16.3,0000.0,0014.40,0005.97,0004.78
2022-07-21 19:40:00,,0827.4,5.00,0.00,29.1,27.4,00.0,37.8,31.0,16.3,0000.0,0014.52,0005.93,0004.80
2022-07-21 19:41:00,,0827.4,5.00,0.00,29.1,27.6,00.0,37.8,31.1,16.6,0000.0,0014.69,0005.93,0004.81
2022-07-21 19:42:00,,0827.3,5.00,0.00,29.2,27.8,00.0,37.8,31.1,16.7,0000.0,0014.74,0005.96,0004.82
2022-07-21 19:43:00,,0827.3,5.01,0.00,29.2,27.9,00.0,37.8,31.2,16.6,0000.0,0014.72,0006.00,0004.83
2022-07-21 19:44:00,,0827.3,5.00,0.00,29.2,27.3,00.0,37.8,31.1,16.6,0000.0,0014.14,0006.04,0004.85
2022-07-21 19:45:00,,0827.4,5.00,0.00,29.2,26.9,00.0,37.7,31.0,16.6,0000.0,0013.63,0006.08,0004.85
2022-07-21 19:46:00,,0827.3,4.99,0.00,29.1,27.0,00.0,37.7,31.0,16.7,0000.0,0013.84,0006.06,0004.86
2022-07-21 19:47:00,,0827.4,5.00,0.00,29.1,27.1,00.0,37.8,31.0,16.8,0000.0,0013.76,0006.04,0004.85
2022-07-21 19:48:00,,0827.4,5.01,0.00,29.1,27.3,00.0,37.8,31.0,17.2,0000.0,0013.57,0006.03,0004.87
2022-07-21 19:49:00,,0827.4,4.99,0.00,29.1,27.5,00.0,37.8,31.0,16.9,0000.0,0013.25,0006.02,0004.86
2022-07-21 19:50:00,,0827.5,5.01,0.00,29.1,27.7,00.0,37.8,31.1,16.8,0000.0,0013.88,0005.99,0004.84
2022-07-21 19:51:00,,0827.5,5.00,0.00,29.2,27.9,00.0,37.8,31.2,16.6,0000.0,0013.59,0006.00,0004.83
2022-07-21 19:52:00,,0827.5,5.00,0.00,29.2,28.0,00.0,37.8,31.2,16.7,0000.0,0013.56,0006.05,0004.82
2022-07-21 19:53:00,,0827.6,4.99,0.00,29.2,27.6,00.0,37.8,31.2,16.9,0000.0,0014.03,0006.04,0004.79
2022-07-21 19:54:00,,0827.7,4.99,0.00,29.2,27.1,00.0,37.8,31.1,17.3,0000.0,0014.00,0006.01,0004.77
2022-07-21 19:55:00,,0827.6,5.00,0.00,29.2,27.1,00.0,37.8,31.1,17.0,0000.0,0013.74,0005.94,0004.74
2022-07-21 19:56:00,,0827.6,5.01,0.00,29.1,27.2,00.0,37.8,31.0,17.0,0000.0,0013.90,0005.91,0004.69
2022-07-21 19:57:00,,0827.7,5.00,0.00,29.1,27.3,00.0,37.8,31.0,16.9,0000.0,0014.56,0005.91,0004.66
2022-07-21 19:58:00,,0827.8,4.99,0.00,29.1,27.5,00.0,37.8,31.1,16.8,0000.0,0014.25,0005.95,0004.65
2022-07-21 19:59:00,,0827.7,4.99,0.00,29.2,27.7,00.0,37.8,31.1,16.6,0000.0,0014.27,0005.91,0004.63
